When you browse on this site, cookies collect data to enhance your experience and personalize the content and advertising you see.
Visit our Privacy Policy to learn more. By continuing to use the site, you agree to this use of cookies and data.
  • In Czech Republic
  • List of Countries
  • For 7 days
  • Water Temperature
  • Weather Map
  • Weather Widgets
  • user-avatar
    Login

    Hourly Weather Reykjavík

    Today, 22 January, Wednesday

    Time Temperature Precipitation Wind Pressure Humidity
    00:00 +3°C° 1.4 mm 10 mps 759 mmHg 97%
    01:00 +3°C° 1.4 mm 9 mps 758 mmHg 98%
    02:00 +3°C° 1.4 mm 9 mps 757 mmHg 98%
    03:00 +3°C° 0.9 mm 9 mps 756 mmHg 98%
    04:00 +4°C° 0.9 mm 8 mps 755 mmHg 98%
    05:00 +4°C° 0.9 mm 8 mps 754 mmHg 98%
    06:00 +3°C° 1.1 mm 9 mps 753 mmHg 98%
    07:00 +5°C° 1.1 mm 9 mps 752 mmHg 98%
    08:00 +5°C° 1.1 mm 10 mps 751 mmHg 98%
    09:00 +4°C° 0.2 mm 11 mps 750 mmHg 97%
    10:00 +4°C° 0.2 mm 11 mps 750 mmHg 97%
    11:00 +4°C° 0.2 mm 12 mps 749 mmHg 96%
    12:00 +3°C° 0.1 mm 12 mps 749 mmHg 91%
    13:00 +1°C° 0.1 mm 11 mps 750 mmHg 87%
    14:00 -1°C° 0.1 mm 11 mps 750 mmHg 82%
    15:00 -1°C° 0.5 mm 12 mps 749 mmHg 84%
    16:00 -2°C° 0.5 mm 12 mps 749 mmHg 86%
    17:00 -2°C° 0.5 mm 13 mps 749 mmHg 88%
    18:00 -4°C° 0.3 mm 14 mps 749 mmHg 80%
    19:00 -4°C° 0.3 mm 15 mps 749 mmHg 72%
    20:00 -5°C° 0.3 mm 16 mps 749 mmHg 64%
    21:00 -5°C° 0.2 mm 16 mps 749 mmHg 65%
    22:00 -6°C° 0.2 mm 17 mps 748 mmHg 65%
    23:00 -7°C° 0.2 mm 17 mps 748 mmHg 65%

    Tomorrow, 23 January, Thursday

    Time Temperature Precipitation Wind Pressure Humidity
    00:00 -7°C° 0.3 mm 17 mps 748 mmHg 65%
    01:00 -6°C° 0.3 mm 18 mps 747 mmHg 65%
    02:00 -6°C° 0.3 mm 18 mps 747 mmHg 65%
    03:00 -6°C° 0.3 mm 18 mps 746 mmHg 64%
    04:00 -6°C° 0.3 mm 18 mps 746 mmHg 62%
    05:00 -6°C° 0.3 mm 19 mps 745 mmHg 60%
    06:00 -6°C° 0.2 mm 19 mps 745 mmHg 60%
    07:00 -6°C° 0.2 mm 19 mps 745 mmHg 61%
    08:00 -6°C° 0.2 mm 18 mps 745 mmHg 61%
    09:00 -7°C° 0.3 mm 18 mps 745 mmHg 61%
    10:00 -7°C° 0.3 mm 18 mps 745 mmHg 62%
    11:00 -7°C° 0.3 mm 17 mps 745 mmHg 63%
    12:00 -7°C° 0.4 mm 17 mps 745 mmHg 65%
    13:00 -7°C° 0.4 mm 17 mps 745 mmHg 67%
    14:00 -7°C° 0.4 mm 16 mps 744 mmHg 70%
    15:00 -7°C° 0.2 mm 17 mps 744 mmHg 70%
    16:00 -8°C° 0.2 mm 17 mps 744 mmHg 70%
    17:00 -8°C° 0.2 mm 18 mps 744 mmHg 70%
    18:00 -8°C° 0.1 mm 18 mps 745 mmHg 70%
    19:00 -8°C° 0.1 mm 17 mps 745 mmHg 70%
    20:00 -8°C° 0.1 mm 17 mps 745 mmHg 70%
    21:00 -8°C° 0.1 mm 17 mps 746 mmHg 74%
    22:00 -7°C° 0.1 mm 16 mps 746 mmHg 78%
    23:00 -7°C° 0.1 mm 16 mps 746 mmHg 81%

    Day after tomorrow, 24 January, Friday

    Time Temperature Precipitation Wind Pressure Humidity
    00:00 -7°C° 0.1 mm 15 mps 747 mmHg 80%
    01:00 -6°C° 0.1 mm 13 mps 747 mmHg 78%
    02:00 -6°C° 0.1 mm 12 mps 748 mmHg 76%
    03:00 -6°C° 0.1 mm 12 mps 748 mmHg 77%
    04:00 -6°C° 0.1 mm 11 mps 748 mmHg 78%
    05:00 -6°C° 0.1 mm 11 mps 749 mmHg 79%
    06:00 -5°C° 0 mm 9 mps 749 mmHg 78%
    07:00 -5°C° 0 mm 8 mps 749 mmHg 77%
    08:00 -4°C° 0 mm 6 mps 750 mmHg 76%
    09:00 -5°C° 0 mm 5 mps 750 mmHg 78%
    10:00 -4°C° 0 mm 3 mps 750 mmHg 79%
    11:00 -3°C° 0 mm 2 mps 750 mmHg 81%
    12:00 -4°C° 0 mm 3 mps 749 mmHg 84%
    13:00 -4°C° 0 mm 4 mps 749 mmHg 86%
    14:00 -5°C° 0 mm 5 mps 749 mmHg 88%
    15:00 -5°C° 0.1 mm 5 mps 748 mmHg 89%
    16:00 -5°C° 0.1 mm 6 mps 746 mmHg 90%
    17:00 -5°C° 0.1 mm 6 mps 745 mmHg 91%
    18:00 -6°C° 0.4 mm 7 mps 744 mmHg 91%
    19:00 -6°C° 0.4 mm 7 mps 743 mmHg 91%
    20:00 -6°C° 0.4 mm 8 mps 741 mmHg 91%
    21:00 -6°C° 1 mm 9 mps 740 mmHg 92%
    22:00 -5°C° 1 mm 10 mps 738 mmHg 92%
    23:00 -6°C° 1 mm 11 mps 737 mmHg 93%

    25 January, Saturday

    Time Temperature Precipitation Wind Pressure Humidity
    00:00 -4°C° 1.2 mm 11 mps 735 mmHg 93%
    01:00 -4°C° 1.2 mm 11 mps 733 mmHg 94%
    02:00 -4°C° 1.2 mm 11 mps 732 mmHg 94%
    03:00 -4°C° 1.1 mm 11 mps 731 mmHg 94%
    04:00 -3°C° 1.1 mm 11 mps 729 mmHg 94%
    05:00 -3°C° 1.1 mm 11 mps 728 mmHg 94%
    06:00 -3°C° 0.4 mm 11 mps 727 mmHg 94%
    07:00 -3°C° 0.4 mm 11 mps 726 mmHg 93%
    08:00 -3°C° 0.4 mm 10 mps 726 mmHg 92%
    09:00 -3°C° 0.9 mm 10 mps 725 mmHg 93%
    10:00 -3°C° 0.9 mm 9 mps 725 mmHg 93%
    11:00 -2°C° 0.9 mm 8 mps 725 mmHg 94%
    12:00 -2°C° 1.9 mm 7 mps 725 mmHg 95%
    13:00 -2°C° 1.9 mm 6 mps 725 mmHg 96%
    14:00 0°C° 1.9 mm 5 mps 724 mmHg 97%
    15:00 0°C° 1.1 mm 5 mps 725 mmHg 97%
    16:00 -1°C° 1.1 mm 6 mps 725 mmHg 97%
    17:00 -1°C° 1.1 mm 6 mps 725 mmHg 97%
    18:00 -1°C° 0.4 mm 5 mps 726 mmHg 92%
    19:00 -1°C° 0.4 mm 5 mps 726 mmHg 88%
    20:00 -1°C° 0.4 mm 5 mps 726 mmHg 84%
    21:00 -2°C° 0.1 mm 5 mps 726 mmHg 84%
    22:00 -3°C° 0.1 mm 4 mps 726 mmHg 84%
    23:00 -3°C° 0.1 mm 4 mps 725 mmHg 85%

    26 January, Sunday

    Time Temperature Precipitation Wind Pressure Humidity
    00:00 -4°C° 0.1 mm 4 mps 725 mmHg 86%
    01:00 -4°C° 0.1 mm 4 mps 725 mmHg 87%
    02:00 -5°C° 0.1 mm 4 mps 725 mmHg 89%
    03:00 -5°C° 0 mm 4 mps 725 mmHg 89%
    04:00 -5°C° 0 mm 4 mps 724 mmHg 89%
    05:00 -5°C° 0 mm 4 mps 724 mmHg 90%
    06:00 -5°C° 0 mm 4 mps 724 mmHg 88%
    07:00 -5°C° 0 mm 4 mps 724 mmHg 86%
    08:00 -5°C° 0 mm 4 mps 724 mmHg 84%
    09:00 -5°C° 0 mm 3 mps 724 mmHg 83%
    10:00 -4°C° 0 mm 3 mps 725 mmHg 83%
    11:00 -4°C° 0 mm 3 mps 725 mmHg 82%
    12:00 -3°C° 0 mm 2 mps 725 mmHg 82%
    13:00 0°C° 0 mm 1 mps 725 mmHg 83%
    14:00 0°C° 0 mm 1 mps 726 mmHg 83%
    15:00 0°C° 0 mm 1 mps 726 mmHg 83%
    16:00 0°C° 0 mm 1 mps 726 mmHg 83%
    17:00 -1°C° 0 mm 1 mps 725 mmHg 83%
    18:00 -1°C° 0 mm 1 mps 725 mmHg 84%
    19:00 -1°C° 0 mm 1 mps 725 mmHg 84%
    20:00 -2°C° 0 mm 1 mps 725 mmHg 84%
    21:00 -4°C° 0 mm 2 mps 725 mmHg 84%
    22:00 -4°C° 0 mm 2 mps 725 mmHg 84%
    23:00 -4°C° 0 mm 2 mps 725 mmHg 84%

    27 January, Monday

    Time Temperature Precipitation Wind Pressure Humidity
    00:00 -4°C° 0 mm 2 mps 725 mmHg 83%
    01:00 -4°C° 0 mm 2 mps 725 mmHg 82%
    02:00 -4°C° 0 mm 2 mps 724 mmHg 81%
    03:00 -4°C° 0 mm 2 mps 724 mmHg 82%
    04:00 -5°C° 0 mm 2 mps 724 mmHg 84%
    05:00 -5°C° 0 mm 2 mps 724 mmHg 85%
    06:00 -5°C° 0.1 mm 2 mps 724 mmHg 87%
    07:00 -5°C° 0.1 mm 2 mps 724 mmHg 89%
    08:00 -5°C° 0.1 mm 2 mps 724 mmHg 91%
    09:00 -5°C° 0 mm 2 mps 723 mmHg 90%
    10:00 -5°C° 0 mm 2 mps 723 mmHg 89%
    11:00 -6°C° 0 mm 2 mps 723 mmHg 88%
    12:00 -6°C° 0 mm 3 mps 722 mmHg 89%
    13:00 -6°C° 0 mm 3 mps 722 mmHg 90%
    14:00 -5°C° 0 mm 3 mps 721 mmHg 91%
    15:00 -6°C° 0.2 mm 5 mps 721 mmHg 92%
    16:00 -5°C° 0.2 mm 6 mps 720 mmHg 93%
    17:00 -6°C° 0.2 mm 7 mps 720 mmHg 94%
    18:00 -6°C° 0 mm 8 mps 720 mmHg 92%
    19:00 -6°C° 0 mm 8 mps 719 mmHg 89%
    20:00 -6°C° 0 mm 8 mps 719 mmHg 86%
    21:00 -7°C° 0 mm 8 mps 719 mmHg 88%
    22:00 -8°C° 0 mm 7 mps 720 mmHg 90%
    23:00 -9°C° 0 mm 6 mps 720 mmHg 91%
    Show more